TAP1705 LPPR-LPMA

Flight info

Callsign TAP1705
Flight time 1h 56m
Altitude 37000
Route ASMOV DCT DIRMA DCT VABEM DCT LIDRO
Aircraft A319/M-SDE3FGHIJ1RWXYZ/LB1

Departure

Time 2026-05-03 20:25
Airport Francisco de Sá Carneiro Airport (LPPR)

Arrival

Time 2026-05-03 22:21
Airport Cristiano Ronaldo International Airport (LPMA)
Time Latitude Longitude Altitude Speed Heading
2026-05-03 20:15 41.23544 -8.67374 261 ft 0 kts 205°
2026-05-03 20:15 41.23542 -8.67375 261 ft 1 kts 205°
2026-05-03 20:15 41.23526 -8.67384 262 ft 4 kts 205°
2026-05-03 20:16 41.23491 -8.67389 263 ft 7 kts 178°
2026-05-03 20:16 41.23427 -8.67374 262 ft 12 kts 167°
2026-05-03 20:16 41.23346 -8.67392 264 ft 12 kts 223°
2026-05-03 20:16 41.23327 -8.67475 267 ft 7 kts 259°
2026-05-03 20:17 41.23320 -8.67527 270 ft 5 kts 258°
2026-05-03 20:17 41.23312 -8.67576 273 ft 7 kts 258°
2026-05-03 20:17 41.23308 -8.67600 274 ft 0 kts 259°
2026-05-03 20:20 41.23308 -8.67605 274 ft 2 kts 259°
2026-05-03 20:20 41.23300 -8.67658 276 ft 9 kts 254°
2026-05-03 20:21 41.23283 -8.67722 280 ft 5 kts 342°
2026-05-03 20:21 41.23284 -8.67723 278 ft 0 kts 345°
2026-05-03 20:24 41.23287 -8.67724 278 ft 1 kts 345°
2026-05-03 20:24 41.23360 -8.67748 276 ft 41 kts 347°
2026-05-03 20:24 41.23918 -8.67892 254 ft 118 kts 349°
2026-05-03 20:24 41.24920 -8.68154 337 ft 164 kts 348°
2026-05-03 20:25 41.26033 -8.68444 1018 ft 163 kts 348°
2026-05-03 20:25 41.27155 -8.68736 1654 ft 169 kts 348°
2026-05-03 20:25 41.28388 -8.69058 2034 ft 192 kts 348°
2026-05-03 20:25 41.29784 -8.69424 2394 ft 218 kts 348°
2026-05-03 20:26 41.31352 -8.69837 2871 ft 242 kts 348°
2026-05-03 20:26 41.33072 -8.70293 3538 ft 259 kts 348°
2026-05-03 20:26 41.34857 -8.70764 4495 ft 264 kts 348°
2026-05-03 20:26 41.36675 -8.71241 5469 ft 268 kts 348°
2026-05-03 20:27 41.38512 -8.71738 6424 ft 272 kts 345°
2026-05-03 20:27 41.40207 -8.72859 7318 ft 276 kts 319°
2026-05-03 20:27 41.41351 -8.74893 8206 ft 279 kts 292°
2026-05-03 20:27 41.41697 -8.77436 9098 ft 283 kts 266°
2026-05-03 20:28 41.41213 -8.79970 9984 ft 286 kts 243°
2026-05-03 20:28 41.39985 -8.82078 10716 ft 298 kts 222°
2026-05-03 20:28 41.38345 -8.83889 11033 ft 321 kts 219°
2026-05-03 20:28 41.36549 -8.85770 11650 ft 332 kts 218°
2026-05-03 20:29 41.34712 -8.87664 12453 ft 336 kts 218°
2026-05-03 20:29 41.32849 -8.89582 13268 ft 339 kts 218°
2026-05-03 20:29 41.30977 -8.91523 14057 ft 342 kts 218°
2026-05-03 20:29 41.29094 -8.93490 14816 ft 346 kts 219°
2026-05-03 20:30 41.27193 -8.95487 15558 ft 349 kts 219°
2026-05-03 20:30 41.25284 -8.97497 16284 ft 352 kts 219°
2026-05-03 20:30 41.23355 -8.99527 16983 ft 355 kts 219°
2026-05-03 20:30 41.21409 -9.01572 17672 ft 358 kts 219°
2026-05-03 20:31 41.19446 -9.03633 18341 ft 361 kts 219°
2026-05-03 20:31 41.17466 -9.05712 19005 ft 364 kts 219°
2026-05-03 20:31 41.15496 -9.07774 19640 ft 367 kts 219°
2026-05-03 20:31 41.13479 -9.09883 20271 ft 370 kts 219°
2026-05-03 20:32 41.11450 -9.12003 20896 ft 373 kts 219°
2026-05-03 20:32 41.09400 -9.14147 21509 ft 376 kts 219°
2026-05-03 20:32 41.07338 -9.16298 22099 ft 379 kts 219°
2026-05-03 20:32 41.05249 -9.18471 22683 ft 382 kts 219°
2026-05-03 20:33 41.03150 -9.20654 23238 ft 385 kts 219°
2026-05-03 20:33 41.01032 -9.22859 23776 ft 388 kts 219°
2026-05-03 20:33 40.98901 -9.25077 24305 ft 391 kts 219°
2026-05-03 20:33 40.96755 -9.27308 24822 ft 394 kts 219°
2026-05-03 20:34 40.94596 -9.29549 25315 ft 396 kts 219°
2026-05-03 20:34 40.92422 -9.31805 25812 ft 398 kts 219°
2026-05-03 20:34 40.90233 -9.34076 26276 ft 401 kts 219°
2026-05-03 20:34 40.88029 -9.36359 26729 ft 403 kts 219°
2026-05-03 20:35 40.85817 -9.38647 27191 ft 405 kts 219°
2026-05-03 20:35 40.83618 -9.40922 27636 ft 407 kts 219°
2026-05-03 20:35 40.81373 -9.43241 28088 ft 409 kts 219°
2026-05-03 20:35 40.79123 -9.45565 28509 ft 412 kts 219°
2026-05-03 20:36 40.76850 -9.47910 28927 ft 414 kts 219°
2026-05-03 20:36 40.74569 -9.50259 29338 ft 416 kts 219°
2026-05-03 20:36 40.72303 -9.52590 29720 ft 418 kts 219°
2026-05-03 20:36 40.69996 -9.54960 30089 ft 420 kts 219°
2026-05-03 20:37 40.67686 -9.57332 30459 ft 422 kts 219°
2026-05-03 20:37 40.65366 -9.59712 30787 ft 424 kts 219°
2026-05-03 20:37 40.63024 -9.62110 31110 ft 426 kts 219°
2026-05-03 20:37 40.60698 -9.64489 31426 ft 428 kts 219°
2026-05-03 20:38 40.58342 -9.66899 31818 ft 428 kts 219°
2026-05-03 20:38 40.55978 -9.69315 32264 ft 427 kts 219°
2026-05-03 20:38 40.53631 -9.71712 32688 ft 426 kts 219°
2026-05-03 20:38 40.51322 -9.74071 33096 ft 425 kts 219°
2026-05-03 20:39 40.48988 -9.76452 33508 ft 424 kts 219°
2026-05-03 20:39 40.46653 -9.78835 33921 ft 423 kts 219°
2026-05-03 20:39 40.44337 -9.81197 34331 ft 422 kts 219°
2026-05-03 20:39 40.42002 -9.83570 34712 ft 422 kts 219°
2026-05-03 20:40 40.39698 -9.85907 35066 ft 422 kts 219°
2026-05-03 20:40 40.37362 -9.88275 35402 ft 422 kts 219°
2026-05-03 20:40 40.35020 -9.90647 35731 ft 423 kts 219°
2026-05-03 20:40 40.32717 -9.92982 36031 ft 423 kts 219°
2026-05-03 20:41 40.30382 -9.95346 36323 ft 424 kts 219°
2026-05-03 20:41 40.28042 -9.97715 36576 ft 424 kts 219°
2026-05-03 20:41 40.25700 -10.00090 36838 ft 424 kts 219°
2026-05-03 20:41 40.23399 -10.02422 36993 ft 424 kts 219°
2026-05-03 20:42 40.21059 -10.04786 37031 ft 421 kts 219°
2026-05-03 20:42 40.16434 -10.09449 37024 ft 418 kts 219°
2026-05-03 20:43 40.11837 -10.14075 37024 ft 416 kts 219°
2026-05-03 20:43 40.07278 -10.18652 37027 ft 416 kts 219°
2026-05-03 20:44 40.02663 -10.23284 37025 ft 417 kts 219°
2026-05-03 20:44 39.98074 -10.27867 37034 ft 417 kts 219°
2026-05-03 20:45 39.93456 -10.32477 37045 ft 417 kts 219°
2026-05-03 20:45 39.88867 -10.37053 37050 ft 417 kts 219°
2026-05-03 20:46 39.84245 -10.41653 37047 ft 417 kts 219°
2026-05-03 20:46 39.79628 -10.46239 37054 ft 417 kts 219°
2026-05-03 20:47 39.75045 -10.50785 37055 ft 417 kts 219°
2026-05-03 20:47 39.70425 -10.55364 37055 ft 417 kts 219°
2026-05-03 20:48 39.65814 -10.59925 37057 ft 417 kts 219°
2026-05-03 20:48 39.61189 -10.64483 37055 ft 417 kts 219°
2026-05-03 20:49 39.56594 -10.69012 37059 ft 417 kts 219°
2026-05-03 20:49 39.51960 -10.73567 37057 ft 417 kts 219°
2026-05-03 20:50 39.47361 -10.78082 37056 ft 416 kts 219°
2026-05-03 20:50 39.42735 -10.82625 37057 ft 416 kts 219°
2026-05-03 20:51 39.38126 -10.87141 37056 ft 417 kts 219°
2026-05-03 20:51 39.33532 -10.91628 37056 ft 417 kts 219°
2026-05-03 20:52 39.28874 -10.96173 37059 ft 417 kts 219°
2026-05-03 20:52 39.24236 -11.00674 37058 ft 417 kts 219°
2026-05-03 20:53 39.19628 -11.05158 37061 ft 417 kts 219°
2026-05-03 20:53 39.14994 -11.09665 37055 ft 417 kts 219°
2026-05-03 20:54 39.11132 -11.13408 37056 ft 417 kts 219°
2026-05-03 20:54 39.03400 -11.20871 37061 ft 417 kts 219°
2026-05-03 20:55 38.98764 -11.25346 37061 ft 416 kts 219°
2026-05-03 20:55 38.94148 -11.29787 37064 ft 416 kts 219°
2026-05-03 20:56 38.89506 -11.34250 37064 ft 416 kts 219°
2026-05-03 20:56 38.85653 -11.37948 37063 ft 416 kts 219°
2026-05-03 20:57 38.80258 -11.43117 37063 ft 415 kts 219°
2026-05-03 20:57 38.76398 -11.46805 37063 ft 415 kts 219°
2026-05-03 20:58 38.71801 -11.51200 37067 ft 415 kts 219°
2026-05-03 20:58 38.66401 -11.56357 37065 ft 415 kts 219°
2026-05-03 20:59 38.62549 -11.60029 37066 ft 415 kts 219°
2026-05-03 20:59 38.57911 -11.64434 37066 ft 414 kts 219°
2026-05-03 21:00 38.54056 -11.68086 37066 ft 414 kts 219°
2026-05-03 21:00 38.48675 -11.73189 37067 ft 414 kts 219°
2026-05-03 21:01 38.44030 -11.77581 37066 ft 414 kts 219°
2026-05-03 21:01 38.39393 -11.81946 37067 ft 414 kts 219°
2026-05-03 21:02 38.34790 -11.86289 37069 ft 413 kts 219°
2026-05-03 21:02 38.30159 -11.90651 37067 ft 413 kts 219°
2026-05-03 21:03 38.25536 -11.95005 37066 ft 413 kts 219°
2026-05-03 21:03 38.20905 -11.99343 37067 ft 413 kts 219°
2026-05-03 21:04 38.16294 -12.03656 37074 ft 412 kts 219°
2026-05-03 21:04 38.11672 -12.07973 37069 ft 412 kts 219°
2026-05-03 21:05 38.07081 -12.12264 37064 ft 412 kts 219°
2026-05-03 21:05 38.02459 -12.16578 37062 ft 412 kts 219°
2026-05-03 21:06 37.97854 -12.20873 37062 ft 412 kts 219°
2026-05-03 21:06 37.93242 -12.25166 37061 ft 412 kts 219°
2026-05-03 21:07 37.88612 -12.29453 37060 ft 412 kts 219°
2026-05-03 21:07 37.83999 -12.33721 37060 ft 412 kts 219°
2026-05-03 21:08 37.79381 -12.37987 37059 ft 411 kts 219°
2026-05-03 21:08 37.74747 -12.42265 37057 ft 411 kts 219°
2026-05-03 21:09 37.70134 -12.46519 37056 ft 411 kts 219°
2026-05-03 21:09 37.65501 -12.50787 37055 ft 411 kts 219°
2026-05-03 21:10 37.60895 -12.55020 37058 ft 412 kts 219°
2026-05-03 21:10 37.56243 -12.59290 37058 ft 411 kts 219°
2026-05-03 21:11 37.51641 -12.63500 37060 ft 411 kts 219°
2026-05-03 21:11 37.47009 -12.67734 37061 ft 412 kts 219°
2026-05-03 21:12 37.42361 -12.71980 37063 ft 412 kts 219°
2026-05-03 21:12 37.37730 -12.76205 37068 ft 413 kts 219°
2026-05-03 21:13 37.33063 -12.80457 37075 ft 413 kts 219°
2026-05-03 21:13 37.28425 -12.84678 37082 ft 413 kts 219°
2026-05-03 21:14 37.23756 -12.88910 37088 ft 413 kts 219°
2026-05-03 21:14 37.19092 -12.93127 37090 ft 413 kts 219°
2026-05-03 21:15 37.14458 -12.97317 37084 ft 413 kts 219°
2026-05-03 21:15 37.09781 -13.01543 37089 ft 413 kts 219°
2026-05-03 21:16 37.05141 -13.05733 37103 ft 413 kts 219°
2026-05-03 21:16 37.00467 -13.09946 37097 ft 413 kts 219°
2026-05-03 21:17 36.96594 -13.13429 37101 ft 413 kts 219°
2026-05-03 21:17 36.91126 -13.18345 37103 ft 414 kts 219°
2026-05-03 21:18 36.86473 -13.22518 37107 ft 414 kts 218°
2026-05-03 21:18 36.81794 -13.26700 37107 ft 413 kts 219°
2026-05-03 21:19 36.77116 -13.30878 37108 ft 413 kts 219°
2026-05-03 21:19 36.72452 -13.35045 37116 ft 412 kts 219°
2026-05-03 21:20 36.67810 -13.39179 37102 ft 412 kts 218°
2026-05-03 21:20 36.63145 -13.43321 37106 ft 412 kts 218°
2026-05-03 21:21 36.58486 -13.47462 37104 ft 411 kts 219°
2026-05-03 21:21 36.53824 -13.51603 37105 ft 412 kts 218°
2026-05-03 21:22 36.49148 -13.55737 37103 ft 412 kts 218°
2026-05-03 21:22 36.44493 -13.59847 37114 ft 412 kts 218°
2026-05-03 21:23 36.39805 -13.63989 37110 ft 412 kts 218°
2026-05-03 21:23 36.35135 -13.68107 37112 ft 411 kts 218°
2026-05-03 21:24 36.30508 -13.72187 37109 ft 410 kts 218°
2026-05-03 21:24 36.25849 -13.76284 37107 ft 410 kts 218°
2026-05-03 21:25 36.21201 -13.80361 37110 ft 409 kts 218°
2026-05-03 21:25 36.16567 -13.84416 37107 ft 409 kts 218°
2026-05-03 21:26 36.11908 -13.88483 37102 ft 409 kts 218°
2026-05-03 21:26 36.07256 -13.92551 37106 ft 409 kts 218°
2026-05-03 21:27 36.02607 -13.96619 37110 ft 409 kts 218°
2026-05-03 21:27 35.97981 -14.00651 37111 ft 409 kts 218°
2026-05-03 21:28 35.93319 -14.04694 37108 ft 410 kts 218°
2026-05-03 21:28 35.88651 -14.08744 37117 ft 409 kts 218°
2026-05-03 21:29 35.84007 -14.12778 37107 ft 409 kts 218°
2026-05-03 21:29 35.79340 -14.16821 37108 ft 409 kts 218°
2026-05-03 21:30 35.74677 -14.20858 37105 ft 409 kts 218°
2026-05-03 21:30 35.70017 -14.24886 37114 ft 409 kts 218°
2026-05-03 21:31 35.65353 -14.28909 37111 ft 410 kts 218°
2026-05-03 21:31 35.60709 -14.32897 37111 ft 410 kts 218°
2026-05-03 21:32 35.56033 -14.36909 37108 ft 410 kts 218°
2026-05-03 21:32 35.51357 -14.40929 37110 ft 410 kts 218°
2026-05-03 21:33 35.46677 -14.44947 37110 ft 410 kts 218°
2026-05-03 21:33 35.41991 -14.48954 37112 ft 410 kts 218°
2026-05-03 21:34 35.37306 -14.52951 37112 ft 410 kts 218°
2026-05-03 21:34 35.32651 -14.56925 37111 ft 410 kts 218°
2026-05-03 21:35 35.27960 -14.60929 37109 ft 410 kts 218°
2026-05-03 21:35 35.23270 -14.64927 37106 ft 410 kts 218°
2026-05-03 21:36 35.18577 -14.68915 37110 ft 411 kts 218°
2026-05-03 21:36 35.13918 -14.72871 37108 ft 410 kts 218°
2026-05-03 21:37 35.09261 -14.76807 37100 ft 410 kts 218°
2026-05-03 21:37 35.04565 -14.80782 37108 ft 410 kts 218°
2026-05-03 21:38 34.99882 -14.84746 37110 ft 410 kts 218°
2026-05-03 21:38 34.95213 -14.88687 37112 ft 410 kts 218°
2026-05-03 21:39 34.90517 -14.92644 37104 ft 410 kts 218°
2026-05-03 21:39 34.85811 -14.96596 37103 ft 411 kts 217°
2026-05-03 21:40 34.81104 -15.00547 37114 ft 411 kts 218°
2026-05-03 21:40 34.76406 -15.04496 37115 ft 411 kts 217°
2026-05-03 21:41 34.71695 -15.08451 37119 ft 410 kts 217°
2026-05-03 21:41 34.66991 -15.12385 37115 ft 411 kts 217°
2026-05-03 21:42 34.62312 -15.16284 37118 ft 411 kts 217°
2026-05-03 21:42 34.57600 -15.20212 36987 ft 412 kts 217°
2026-05-03 21:43 34.55237 -15.22181 36736 ft 410 kts 217°
2026-05-03 21:43 34.52885 -15.24140 36487 ft 410 kts 217°
2026-05-03 21:43 34.50530 -15.26102 36234 ft 410 kts 217°
2026-05-03 21:43 34.48167 -15.28072 35988 ft 412 kts 217°
2026-05-03 21:44 34.45800 -15.30046 35737 ft 414 kts 217°
2026-05-03 21:44 34.43437 -15.32009 35485 ft 417 kts 217°
2026-05-03 21:44 34.41031 -15.34004 35243 ft 418 kts 217°
2026-05-03 21:44 34.38649 -15.35974 35001 ft 419 kts 217°
2026-05-03 21:45 34.36218 -15.37988 34742 ft 419 kts 217°
2026-05-03 21:45 34.33833 -15.39966 34494 ft 419 kts 217°
2026-05-03 21:45 34.31400 -15.41981 34241 ft 420 kts 217°
2026-05-03 21:45 34.29009 -15.43957 33991 ft 420 kts 217°
2026-05-03 21:46 34.26590 -15.45952 33742 ft 420 kts 217°
2026-05-03 21:46 34.24984 -15.47278 33575 ft 420 kts 217°
2026-05-03 21:46 34.21788 -15.49916 33242 ft 418 kts 217°
2026-05-03 21:46 34.19382 -15.51902 32984 ft 417 kts 217°
2026-05-03 21:47 34.17796 -15.53212 32826 ft 416 kts 217°
2026-05-03 21:47 34.15409 -15.55180 32575 ft 415 kts 217°
2026-05-03 21:47 34.13028 -15.57140 32323 ft 414 kts 217°
2026-05-03 21:47 34.10656 -15.59091 32074 ft 412 kts 217°
2026-05-03 21:48 34.08290 -15.61034 31823 ft 411 kts 217°
2026-05-03 21:48 34.05927 -15.62971 31514 ft 407 kts 217°
2026-05-03 21:48 34.03598 -15.64880 30989 ft 403 kts 217°
2026-05-03 21:48 34.01288 -15.66776 30466 ft 399 kts 217°
2026-05-03 21:49 33.99000 -15.68652 29946 ft 396 kts 217°
2026-05-03 21:49 33.96730 -15.70514 29433 ft 392 kts 217°
2026-05-03 21:49 33.94481 -15.72356 28927 ft 389 kts 217°
2026-05-03 21:49 33.92252 -15.74177 28421 ft 386 kts 217°
2026-05-03 21:50 33.90041 -15.75983 27936 ft 382 kts 217°
2026-05-03 21:50 33.87846 -15.77778 27440 ft 379 kts 217°
2026-05-03 21:50 33.85693 -15.79539 26981 ft 377 kts 217°
2026-05-03 21:50 33.83535 -15.81305 26515 ft 374 kts 217°
2026-05-03 21:51 33.81381 -15.83062 26041 ft 377 kts 217°
2026-05-03 21:51 33.79209 -15.84833 25492 ft 378 kts 217°
2026-05-03 21:51 33.77031 -15.86607 24972 ft 377 kts 217°
2026-05-03 21:51 33.74868 -15.88367 24475 ft 375 kts 217°
2026-05-03 21:52 33.72707 -15.90121 23978 ft 373 kts 217°
2026-05-03 21:52 33.70566 -15.91860 23489 ft 371 kts 216°
2026-05-03 21:52 33.68435 -15.93594 23010 ft 368 kts 217°
2026-05-03 21:52 33.66316 -15.95315 22539 ft 366 kts 216°
2026-05-03 21:53 33.64202 -15.96989 22075 ft 364 kts 215°
2026-05-03 21:53 33.62075 -15.98627 21626 ft 361 kts 214°
2026-05-03 21:53 33.59955 -16.00237 21134 ft 359 kts 214°
2026-05-03 21:53 33.57872 -16.01815 20671 ft 357 kts 214°
2026-05-03 21:54 33.55784 -16.03400 20203 ft 355 kts 214°
2026-05-03 21:54 33.53700 -16.04984 19740 ft 353 kts 214°
2026-05-03 21:54 33.51638 -16.06554 19285 ft 350 kts 214°
2026-05-03 21:54 33.49590 -16.08119 18838 ft 348 kts 215°
2026-05-03 21:55 33.47554 -16.09679 18377 ft 346 kts 214°
2026-05-03 21:55 33.45527 -16.11229 17936 ft 344 kts 214°
2026-05-03 21:55 33.43514 -16.12766 17487 ft 342 kts 214°
2026-05-03 21:55 33.41508 -16.14297 17055 ft 340 kts 214°
2026-05-03 21:56 33.39524 -16.15809 16628 ft 338 kts 214°
2026-05-03 21:56 33.37542 -16.17319 16202 ft 336 kts 214°
2026-05-03 21:56 33.35576 -16.18819 15786 ft 334 kts 214°
2026-05-03 21:56 33.33647 -16.20291 15377 ft 332 kts 214°
2026-05-03 21:57 33.31681 -16.21794 14955 ft 331 kts 214°
2026-05-03 21:57 33.29771 -16.23251 14552 ft 329 kts 214°
2026-05-03 21:57 33.27843 -16.24715 14141 ft 327 kts 214°
2026-05-03 21:57 33.25926 -16.26168 13733 ft 325 kts 214°
2026-05-03 21:58 33.24017 -16.27613 13315 ft 323 kts 214°
2026-05-03 21:58 33.22123 -16.29050 12894 ft 322 kts 214°
2026-05-03 21:58 33.20238 -16.30483 12470 ft 320 kts 214°
2026-05-03 21:58 33.18365 -16.31905 12046 ft 318 kts 214°
2026-05-03 21:59 33.16497 -16.33319 11608 ft 316 kts 214°
2026-05-03 21:59 33.14635 -16.34729 11171 ft 315 kts 214°
2026-05-03 21:59 33.12819 -16.36104 10738 ft 313 kts 214°
2026-05-03 21:59 33.10967 -16.37507 10281 ft 311 kts 213°
2026-05-03 22:00 33.09156 -16.38875 9983 ft 304 kts 213°
2026-05-03 22:00 33.07401 -16.40199 9842 ft 292 kts 213°
2026-05-03 22:00 33.05706 -16.41478 9549 ft 286 kts 214°
2026-05-03 22:00 33.04029 -16.42747 9171 ft 285 kts 214°
2026-05-03 22:01 33.02360 -16.44009 8770 ft 283 kts 213°
2026-05-03 22:01 33.00722 -16.45246 8364 ft 281 kts 213°
2026-05-03 22:01 32.99071 -16.46491 7967 ft 280 kts 213°
2026-05-03 22:01 32.97422 -16.47734 7515 ft 278 kts 213°
2026-05-03 22:02 32.95795 -16.48959 7161 ft 275 kts 213°
2026-05-03 22:02 32.94178 -16.50179 7106 ft 276 kts 213°
2026-05-03 22:02 32.92590 -16.51469 7107 ft 276 kts 221°
2026-05-03 22:02 32.91190 -16.52963 6935 ft 272 kts 223°
2026-05-03 22:03 32.89816 -16.54435 6804 ft 259 kts 223°
2026-05-03 22:03 32.88476 -16.55864 6541 ft 252 kts 223°
2026-05-03 22:03 32.87198 -16.57229 6185 ft 249 kts 223°
2026-05-03 22:03 32.85908 -16.58603 5809 ft 247 kts 223°
2026-05-03 22:04 32.84749 -16.60091 5420 ft 245 kts 240°
2026-05-03 22:04 32.84262 -16.62001 5032 ft 242 kts 268°
2026-05-03 22:04 32.84584 -16.63945 4628 ft 242 kts 296°
2026-05-03 22:04 32.85622 -16.65494 4236 ft 242 kts 322°
2026-05-03 22:05 32.87138 -16.66289 4014 ft 241 kts 350°
2026-05-03 22:05 32.88816 -16.66168 4017 ft 245 kts 18°
2026-05-03 22:05 32.90281 -16.65142 4020 ft 247 kts 41°
2026-05-03 22:05 32.91562 -16.63777 4018 ft 247 kts 43°
2026-05-03 22:06 32.92824 -16.62383 4026 ft 248 kts 43°
2026-05-03 22:06 32.94082 -16.60986 4025 ft 247 kts 43°
2026-05-03 22:06 32.95336 -16.59577 4024 ft 248 kts 46°
2026-05-03 22:06 32.96207 -16.57828 4023 ft 247 kts 75°
2026-05-03 22:07 32.96284 -16.55829 4025 ft 247 kts 103°
2026-05-03 22:07 32.95563 -16.53998 3952 ft 245 kts 130°
2026-05-03 22:07 32.94228 -16.52798 3572 ft 241 kts 159°
2026-05-03 22:07 32.92597 -16.52483 3200 ft 240 kts 186°
2026-05-03 22:08 32.91040 -16.53090 3027 ft 236 kts 213°
2026-05-03 22:08 32.89749 -16.54315 3024 ft 239 kts 221°
2026-05-03 22:08 32.88509 -16.55649 3025 ft 240 kts 223°
2026-05-03 22:08 32.87300 -16.56992 3028 ft 240 kts 223°
2026-05-03 22:09 32.86079 -16.58354 3025 ft 240 kts 223°
2026-05-03 22:09 32.84912 -16.59782 3023 ft 240 kts 236°
2026-05-03 22:09 32.84344 -16.61634 3022 ft 240 kts 265°
2026-05-03 22:10 32.85600 -16.65120 3022 ft 241 kts 323°
2026-05-03 22:10 32.87127 -16.65910 3014 ft 242 kts 352°
2026-05-03 22:10 32.88784 -16.65720 3014 ft 242 kts 21°
2026-05-03 22:10 32.90178 -16.64621 3021 ft 242 kts 43°
2026-05-03 22:11 32.91422 -16.63259 3022 ft 244 kts 45°
2026-05-03 22:11 32.92268 -16.61554 3025 ft 241 kts 80°
2026-05-03 22:11 32.92084 -16.59599 3035 ft 241 kts 113°
2026-05-03 22:11 32.91140 -16.57981 3037 ft 240 kts 139°
2026-05-03 22:12 32.89693 -16.57016 3034 ft 240 kts 166°
2026-05-03 22:12 32.88046 -16.56963 3035 ft 239 kts 194°
2026-05-03 22:12 32.86580 -16.57846 3036 ft 239 kts 220°
2026-05-03 22:12 32.85338 -16.59168 3035 ft 238 kts 223°
2026-05-03 22:13 32.84172 -16.60428 3032 ft 223 kts 222°
2026-05-03 22:13 32.83031 -16.61653 3032 ft 220 kts 222°
2026-05-03 22:13 32.81826 -16.62767 3035 ft 220 kts 212°
2026-05-03 22:13 32.80471 -16.63599 3033 ft 219 kts 202°
2026-05-03 22:14 32.79028 -16.64194 3031 ft 219 kts 199°
2026-05-03 22:14 32.77586 -16.64773 2766 ft 218 kts 199°
2026-05-03 22:14 32.76156 -16.65352 2454 ft 217 kts 199°
2026-05-03 22:14 32.74723 -16.65933 2141 ft 216 kts 199°
2026-05-03 22:15 32.73322 -16.66505 2034 ft 208 kts 199°
2026-05-03 22:15 32.71925 -16.67074 2034 ft 213 kts 198°
2026-05-03 22:15 32.70573 -16.67621 2031 ft 199 kts 198°
2026-05-03 22:15 32.69290 -16.68139 2032 ft 192 kts 198°
2026-05-03 22:16 32.68071 -16.68631 2054 ft 183 kts 198°
2026-05-03 22:16 32.66883 -16.69110 2032 ft 178 kts 199°
2026-05-03 22:16 32.65729 -16.69576 2033 ft 176 kts 198°
2026-05-03 22:16 32.64556 -16.70051 2031 ft 175 kts 198°
2026-05-03 22:17 32.63439 -16.70585 2034 ft 176 kts 207°
2026-05-03 22:17 32.62464 -16.71400 2027 ft 169 kts 222°
2026-05-03 22:17 32.61698 -16.72446 2033 ft 167 kts 236°
2026-05-03 22:17 32.61163 -16.73664 2039 ft 167 kts 249°
2026-05-03 22:18 32.60877 -16.74993 2036 ft 167 kts 262°
2026-05-03 22:18 32.60858 -16.76366 2033 ft 165 kts 275°
2026-05-03 22:18 32.61083 -16.77630 2028 ft 152 kts 288°
2026-05-03 22:18 32.61557 -16.78736 1863 ft 147 kts 306°
2026-05-03 22:19 32.62254 -16.79561 1656 ft 138 kts 323°
2026-05-03 22:19 32.63086 -16.80095 1470 ft 135 kts 340°
2026-05-03 22:19 32.63993 -16.80335 1292 ft 134 kts 355°
2026-05-03 22:19 32.64913 -16.80344 1117 ft 132 kts
2026-05-03 22:20 32.65829 -16.80345 946 ft 131 kts
2026-05-03 22:20 32.66734 -16.80238 773 ft 131 kts 13°
2026-05-03 22:20 32.67576 -16.79847 597 ft 130 kts 30°
2026-05-03 22:20 32.68291 -16.79188 413 ft 130 kts 44°
2026-05-03 22:21 32.68926 -16.78444 241 ft 130 kts 43°
2026-05-03 22:21 32.69524 -16.77752 176 ft 100 kts 44°
2026-05-03 22:21 32.69893 -16.77321 176 ft 40 kts 44°
2026-05-03 22:21 32.69924 -16.77182 176 ft 11 kts 170°
2026-05-03 22:22 32.69886 -16.77179 176 ft 5 kts 175°
2026-05-03 22:22 32.69844 -16.77179 176 ft 6 kts 187°
2026-05-03 22:22 32.69805 -16.77220 176 ft 10 kts 224°
2026-05-03 22:22 32.69749 -16.77289 176 ft 13 kts 226°
2026-05-03 22:23 32.69677 -16.77378 176 ft 17 kts 226°
2026-05-03 22:23 32.69588 -16.77490 176 ft 19 kts 226°
2026-05-03 22:23 32.69518 -16.77508 176 ft 11 kts 139°
2026-05-03 22:23 32.69481 -16.77470 177 ft 0 kts 137°